Location: Morisset
(33.1080°S, 151.4871°E)
Time: 08:47:54
(UTC+00:00)

SL-16 R/B - Pass Details

Date: 29 October 2020
Orbit: 986 x 1006 km, 99.5° (Epoch: 27 November)

Event Time Altitude Azimuth Distance (km) Brightness Sun altitude
Rises 15:14:33 0° 147° (SSE) 3,730 6.5 -37.8°
Reaches altitude 10° 15:17:50 10° 130° (SE) 2,769 5.5 -37.4°
Maximum altitude 15:22:10 20° 86° (E) 2,141 4.5 -36.9°
Enters shadow 15:22:46 19° 78° (ENE) 2,153 4.4 -36.9°
